TimeCST,TemperatureF,Dew PointF,Humidity,Sea Level PressureIn,VisibilityMPH,Wind Direction,Wind SpeedMPH,Gust SpeedMPH,PrecipitationIn,Events,Conditions,WindDirDegrees,DateUTC
12:53 AM,19.0,10.0,68,29.76,10.0,NW,8.1,-,N/A,,Clear,320,2014-02-14 06:53:00
1:53 AM,18.0,9.0,68,29.76,10.0,NNW,5.8,-,N/A,,Partly Cloudy,340,2014-02-14 07:53:00
2:53 AM,16.0,8.1,71,29.74,10.0,NNW,5.8,-,N/A,,Scattered Clouds,330,2014-02-14 08:53:00
3:53 AM,17.1,9.0,71,29.76,10.0,WNW,4.6,-,N/A,,Overcast,300,2014-02-14 09:53:00
4:53 AM,16.0,9.0,74,29.77,10.0,NW,5.8,-,N/A,,Mostly Cloudy,310,2014-02-14 10:53:00
5:53 AM,16.0,9.0,74,29.75,10.0,NNE,6.9,-,N/A,,Overcast,20,2014-02-14 11:53:00
6:21 AM,16.0,9.0,74,29.73,2.5,NNE,3.5,-,0.00,Snow,Light Snow,20,2014-02-14 12:21:00
6:29 AM,16.0,10.0,77,29.72,1.0,Calm,Calm,-,0.00,Snow,Light Snow,0,2014-02-14 12:29:00
6:39 AM,16.0,10.9,81,29.72,0.8,NE,4.6,-,0.00,Snow,Light Snow,50,2014-02-14 12:39:00
6:53 AM,15.1,10.9,84,29.74,0.8,NE,8.1,-,0.00,Snow,Light Snow,40,2014-02-14 12:53:00
7:16 AM,15.1,12.0,88,29.71,1.0,NE,6.9,-,0.02,Snow,Light Snow,50,2014-02-14 13:16:00
7:40 AM,15.1,12.0,88,29.72,0.8,NE,11.5,-,0.02,Snow,Light Snow,40,2014-02-14 13:40:00
7:51 AM,15.8,10.4,79,29.74,0.5,NNE,11.5,-,0.03,Fog-Snow,Snow,20,2014-02-14 13:51:00
7:53 AM,15.1,10.9,84,29.77,0.5,NNE,11.5,-,0.04,Fog-Snow,Snow,20,2014-02-14 13:53:00
8:06 AM,15.1,10.9,84,29.76,0.2,North,11.5,-,0.01,Fog-Snow,Snow,10,2014-02-14 14:06:00
8:45 AM,15.1,12.0,88,29.78,0.5,North,10.4,-,0.04,Fog-Snow,Snow,10,2014-02-14 14:45:00
8:53 AM,15.1,12.0,88,29.81,0.8,North,9.2,-,0.05,Snow,Light Snow,10,2014-02-14 14:53:00
9:00 AM,15.1,12.0,88,29.79,0.8,North,8.1,-,0.00,Snow,Light Snow,360,2014-02-14 15:00:00
9:22 AM,16.0,12.0,84,29.80,0.8,North,10.4,-,0.02,Snow,Light Snow,350,2014-02-14 15:22:00
9:44 AM,15.1,12.0,88,29.81,0.5,NNW,9.2,-,0.03,Fog-Snow,Snow,330,2014-02-14 15:44:00
9:53 AM,15.1,10.9,84,29.83,0.5,North,12.7,-,0.04,Fog-Snow,Snow,360,2014-02-14 15:53:00
10:26 AM,15.1,10.9,84,29.82,0.2,NNW,11.5,-,0.02,Fog-Snow,Heavy Snow,340,2014-02-14 16:26:00
10:34 AM,16.0,10.9,81,29.82,0.5,North,8.1,-,0.03,Snow,Snow,350,2014-02-14 16:34:00
10:44 AM,16.0,10.9,81,29.83,1.0,North,9.2,-,0.03,Snow,Light Snow,350,2014-02-14 16:44:00
10:53 AM,17.1,10.9,77,29.87,1.2,NNW,8.1,-,0.03,Snow,Light Snow,340,2014-02-14 16:53:00
11:30 AM,17.1,12.0,81,29.83,0.8,North,9.2,-,0.01,Snow,Light Snow,350,2014-02-14 17:30:00
11:40 AM,17.1,12.0,81,29.83,1.5,NNW,11.5,-,0.01,Snow,Light Snow,340,2014-02-14 17:40:00
11:51 AM,17.6,10.4,73,29.84,2.5,NNW,12.7,-,0.01,Snow,Light Snow,340,2014-02-14 17:51:00
11:53 AM,17.1,10.9,77,29.87,2.5,NNW,10.4,-,0.01,Snow,Light Snow,340,2014-02-14 17:53:00
11:59 AM,17.1,10.9,77,29.84,3.0,NNW,10.4,-,0.00,Snow,Light Snow,330,2014-02-14 17:59:00
12:53 PM,18.0,10.9,74,29.86,5.0,NNW,13.8,-,0.00,Snow,Light Snow,330,2014-02-14 18:53:00
1:53 PM,19.0,10.0,68,29.88,10.0,NW,13.8,-,0.00,,Overcast,320,2014-02-14 19:53:00
2:53 PM,19.0,10.0,68,29.91,10.0,NW,15.0,21.9,N/A,,Scattered Clouds,310,2014-02-14 20:53:00
3:53 PM,16.0,8.1,71,29.94,10.0,NW,15.0,25.3,N/A,,Partly Cloudy,320,2014-02-14 21:53:00
4:53 PM,16.0,7.0,68,29.96,10.0,NW,13.8,25.3,N/A,,Clear,320,2014-02-14 22:53:00
5:53 PM,14.0,6.1,71,29.99,10.0,NW,16.1,24.2,N/A,,Clear,320,2014-02-14 23:53:00
6:53 PM,12.9,5.0,71,30.03,10.0,NW,13.8,-,N/A,,Clear,320,2014-02-15 00:53:00
7:53 PM,10.9,3.9,73,30.04,10.0,NW,12.7,-,N/A,,Clear,310,2014-02-15 01:53:00
8:53 PM,10.0,3.9,76,30.05,10.0,WNW,10.4,-,N/A,,Clear,300,2014-02-15 02:53:00
9:53 PM,9.0,3.0,77,30.09,10.0,NW,11.5,-,N/A,,Clear,310,2014-02-15 03:53:00
10:53 PM,7.0,1.9,80,30.09,10.0,NW,5.8,-,N/A,,Clear,320,2014-02-15 04:53:00
11:53 PM,6.1,1.0,80,30.12,10.0,NW,6.9,-,N/A,,Clear,310,2014-02-15 05:53:00